Location: Columbus
(29.5618°N, 96.6770°W)
Time: 09:43:28
(UTC-05:00)

Daily predictions for brighter satellites

Satellite Brightness Start Highest point End
(mag) Time Altitude Azimuth Time Altitude Azimuth Time Altitude Azimuth
Resurs 01 Rocket 2.5 20:20:15 10° SE 20:24:08 31° ENE 20:28:03 10° NNE
NOAA 12 4.4 20:19:23 10° S 20:24:37 72° WSW 20:29:50 10° NNW
Helios 1B rocket 4.0 20:22:14 10° NE 20:24:52 16° E 20:27:29 10° SE
H-2A R/B (2) 3.7 20:21:57 10° WSW 20:25:30 32° S 20:36:52 10° SE
H-2A R/B 3.4 20:23:12 10° SE 20:26:49 37° ENE 20:30:25 10° N
Cosmos 1869 3.6 20:24:15 10° SSE 20:27:58 43° E 20:31:43 10° NNE
Cosmos 2360 Rocket 3.3 20:25:37 10° SSE 20:29:48 22° E 20:33:59 10° NE
Cosmos 1980 Rocket 4.1 20:25:17 10° SW 20:30:28 37° WNW 20:35:42 10° N
USA 267 4.4 20:25:08 10° NNE 20:31:22 48° NW 20:37:35 10° WSW
Intelsat 5-1 Rocket 3.2 20:31:42 10° SW 20:34:33 17° S 20:36:30 10° SE
OAO 3 Rocket 4.2 20:30:05 10° WNW 20:34:43 43° N 20:39:25 10° ENE
SJ-6B 3.0 20:32:48 10° S 20:36:42 78° W 20:40:43 10° NNW
Cosmos 1825 3.7 20:34:05 10° NNE 20:36:49 19° ENE 20:39:19 11° ESE
Spot 2 Rocket 3.9 20:32:28 10° SE 20:37:15 43° ENE 20:42:02 10° N
OTV 4 2.4 20:35:28 10° W 20:37:42 21° SW 20:39:56 10° SSE
Cosmos 1400 Rocket 3.7 20:40:40 10° NNW 20:44:29 52° W 20:48:21 10° S
ATLAS 5 CENTAUR R/B 4.2 20:46:16 10° NNE 20:49:53 16° NE 20:53:36 10° E
SL-16 R/B 2.4 20:45:27 10° SSW 20:51:06 79° WNW 20:56:47 10° NNE
BREEZE-M DEB (TANK) 4.0 20:48:25 10° WNW 20:51:08 41° SW 20:57:27 10° SSE
Cosmos 1408 3.5 20:48:52 10° NNE 20:52:08 30° E 20:54:20 16° SE
Cosmos 1707 Rocket 4.4 20:47:58 10° SSW 20:52:19 55° W 20:56:40 10° N
CZ-2D R/B 3.4 20:49:40 10° SSE 20:53:28 54° ENE 20:57:15 10° N
Envisat 4.0 20:54:22 16° ESE 20:57:27 28° ENE 21:01:43 10° NNE
Cosmos 2026 Rocket 4.2 20:51:32 10° N 20:57:28 48° E 21:03:18 10° SSE
DELTA 2 R/B (1) 3.8 20:53:16 10° WNW 20:58:49 65° SSW 21:03:05 17° SE
Meteor 1-29 3.7 20:56:16 10° NE 20:59:22 31° E 21:01:29 16° SSE
H-II Stage 2 3.1 20:58:21 10° WSW 21:00:42 28° S 21:04:06 16° SE
Cosmos 1315 Rocket 3.2 20:57:57 10° NNW 21:01:58 66° W 21:05:54 10° S
Cosmos 1733 Rocket 3.9 20:59:07 10° NNE 21:03:07 32° E 21:05:12 21° SE
Cosmos 1933 3.7 21:01:03 10° SSE 21:04:51 42° E 21:08:40 10° NNE
Cosmos 1862 Rocket 3.7 21:01:40 10° SSE 21:05:57 51° E 21:10:18 10° NNE
Meteor 2-20 Rocket 4.4 21:01:45 10° N 21:07:49 64° E 21:13:53 10° SSE
Helios 1A 3.6 21:05:51 22° SE 21:08:06 39° ENE 21:12:03 10° N
SEDSat Delta rocket 3.6 21:06:57 10° W 21:11:57 72° N 21:16:15 18° E
USA 186 1.2 21:11:31 35° SSE 21:12:28 71° E 21:15:20 10° N
CZ-4B DEB 3.8 21:16:48 27° ENE 21:16:48 27° ENE 21:19:08 10° NNE
ERBS 2.4 21:15:07 10° NW 21:18:34 73° SW 21:19:55 34° SSE
Resurs 1-3 4.1 21:17:30 10° S 21:21:49 59° W 21:26:09 10° NNW
ERS-1 Rocket 4.2 21:22:03 22° E 21:22:39 22° ENE 21:26:27 10° NNE
Cosmos 1862 3.3 21:23:50 10° N 21:27:51 63° E 21:29:05 40° SSE
Milstar 3 2.9 21:19:34 10° W 21:28:07 73° S 21:31:41 30° ESE
Sakura Rocket 2.7 21:24:43 10° WSW 21:28:24 65° S 21:29:28 44° ESE
Meteor 2-10 Rocket 3.7 21:29:35 10° S 21:35:20 68° E 21:41:05 10° NNE
Meteor 1-26 Rocket 4.2 21:33:58 23° SSE 21:37:26 58° E 21:43:05 10° NNE
Cosmos 1655 Rocket 4.0 21:33:57 10° N 21:40:21 89° W 21:45:07 19° S
Cosmos 1939 Rocket 2.8 21:40:34 60° ESE 21:41:01 67° ENE 21:45:00 10° N
USA 229 DEB 3.7 21:37:28 10° SSW 21:44:16 86° WNW 21:51:12 10° NNE
USA 229 3.6 21:37:34 10° SSW 21:44:22 87° WNW 21:51:18 10° NNE
Cosmos 2266 Rocket 4.5 21:40:25 10° NNE 21:46:19 40° E 21:47:07 38° E
Skynet4D Del rocket 4.4 21:48:03 10° W 21:56:21 72° S 21:59:03 44° ESE
Resurs 01 Rocket 4.2 21:57:41 10° SW 22:00:35 17° W 22:03:30 10° NW
Lacrosse 4 Rocket 2.8 21:56:46 10° NW 22:00:47 36° WSW 22:02:01 30° SW
Cosmos 2263 Rocket 2.1 21:55:43 10° NNW 22:01:17 82° WSW 22:02:37 54° S
Atlas Centaur 2 2.8 21:54:59 10° W 22:01:48 85° N 22:05:12 38° E
Cosmos 2237 4.1 21:57:07 10° SSW 22:02:50 87° WNW 22:08:35 10° NNE
Cosmos 489 Rocket 4.4 21:58:09 10° N 22:04:29 69° ENE 22:05:35 58° SE
FALCON 9 R/B 3.8 22:08:30 10° WNW 22:08:44 12° NW 22:08:44 12° NW
COSMOS 2428 2.5 22:10:54 58° S 22:12:06 84° ESE 22:17:49 10° NNE
Cosmos 2360 Rocket 3.6 22:08:15 10° SW 22:13:26 37° WNW 22:18:41 10° N
OAO 3 Rocket 3.6 22:13:48 10° WNW 22:18:18 61° N 22:18:18 61° N
Cosmos 1908 Rocket 4.3 22:18:55 10° NNW 22:22:17 49° NW 22:22:17 49° NW
NOAA 11 4.4 22:25:37 61° NNE 22:25:37 61° NNE 22:30:20 10° N
Sich 1 Rocket 4.3 22:20:42 10° NNW 22:24:26 53° NW 22:24:26 53° NW
Meteor 1-14 Rocket 4.2 22:21:33 10° N 22:27:02 82° NNE 22:27:02 82° NNE
Cosmos 968 Rocket 3.7 22:23:52 10° NNW 22:28:30 68° NW 22:28:30 68° NW
ATLAS 5 CENTAUR R/B 2.4 22:28:54 10° NNW 22:35:10 83° WSW 22:35:10 83° WSW
ARGOS 3.9 22:37:52 44° NNE 22:37:52 44° NNE 22:41:37 10° N
Terra 4.4 22:40:44 11° NNE 22:40:44 11° NNE 22:40:55 10° NNE
H-2A R/B 3.8 22:40:24 22° NNE 22:40:24 22° NNE 22:42:24 10° N
Cosmos 1867 4.1 22:37:40 10° NNW 22:41:58 56° NW 22:41:58 56° NW
USA 234 3.2 22:44:02 77° NE 22:44:02 77° NE 22:50:28 10° NW
Cosmos 2237 Rocket 4.5 22:55:50 14° NNE 22:55:50 14° NNE 22:56:35 10° NNE
Cosmos 2333 Rocket 3.9 22:55:19 24° NNE 22:55:19 24° NNE 22:57:32 10° NNE
Cosmos 2278 Rocket 4.2 22:57:38 10° N 22:59:34 18° NNE 22:59:34 18° NNE
Cosmos 1844 Rocket 3.9 22:57:46 10° NNW 23:00:56 34° N 23:00:56 34° N
SeaSat 1 4.3 23:07:43 26° N 23:07:43 26° N 23:09:55 10° NNW
Cosmos 2219 Rocket 3.7 23:19:11 31° NNW 23:19:11 31° NNW 23:22:26 10° N
